Vorticity
nan nan nan nan nan nan nan nan nan nan nan nan nan nan nan nan nan nan nan nan nan nan
nan 8 11 10 9 8 9 10 9 9 9 11 15 12 8 8 8 8 9 9 7 nan
nan 13 11 10 6 9 12 10 11 7 6 11 15 11 9 9 9 7 7 9 9 nan
nan 11 9 8 9 11 10 10 10 10 8 9 12 11 10 10 10 9 7 9 12 nan
nan 9 9 11 11 11 11 11 11 11 10 10 9 10 10 10 11 10 10 9 9 nan
nan 10 10 10 11 10 11 13 12 11 13 13 11 10 10 11 10 10 11 12 11 nan
nan 9 10 10 9 8 9 9 10 9 11 11 10 10 11 13 13 12 11 10 11 nan
nan 11 10 10 9 8 9 9 10 11 9 8 7 8 11 11 13 11 9 14 13 nan
nan 13 8 8 9 8 8 9 11 11 7 8 6 7 11 12 9 10 14 12 9 nan
nan 8 8 9 8 8 8 7 10 9 8 8 5 6 8 11 13 13 12 11 10 nan
nan 8 6 9 9 9 10 9 9 9 8 7 5 5 7 12 14 14 12 11 11 nan
nan 10 10 10 10 8 8 9 12 10 9 8 6 6 11 12 10 14 12 10 12 nan
nan 9 10 9 7 9 10 10 10 11 12 9 5 5 9 12 11 12 10 7 10 nan
nan nan nan nan nan nan nan nan nan nan nan nan nan nan nan nan nan nan nan nan nan nan
CAPE
471 535 320 115 450 687 423 624 612 880 717 478 703 818 588 765 977 855 922 902 1205 1136
847 687 734 640 657 547 295 749 495 13 8 384 545 686 1053 924 739 948 819 913 1132 1219
1092 994 877 0 82 253 975 1058 1223 16 11 605 752 806 811 938 990 904 904 858 960 790
1360 1293 978 46 316 894 1495 1580 1662 1599 1314 1031 1000 1212 1172 1079 1229 1056 900 972 1183 1141
1442 1612 1471 1244 1591 1720 1643 1958 1934 1856 1733 1590 1117 1303 1287 1380 1639 1390 1221 1138 1115 1121
1699 1335 1545 1502 1572 726 607 1430 1557 1440 1659 1716 1684 1436 1396 1351 1327 1205 1422 1365 1299 1237
1694 1622 1967 1529 814 648 608 346 473 626 528 101 16 34 291 747 1052 940 1016 844 794 1191
1704 1840 1775 1146 669 479 680 473 395 302 5 0 0 0 0 0 53 75 256 362 654 78
1659 1375 1032 942 846 425 357 291 174 9 0 0 0 0 0 0 0 0 0 8 28 0
1743 1420 1240 980 579 399 322 220 141 103 0 0 0 0 0 0 0 0 0 0 0 0
1734 1438 1249 834 670 591 239 216 90 56 0 0 0 0 0 0 0 0 0 0 0 0
1595 1461 959 750 627 425 172 82 53 10 0 0 0 0 0 0 0 0 0 0 0 0
1483 1163 884 919 612 139 18 23 10 0 0 0 0 0 0 0 0 0 0 0 0 0
839 1007 631 153 44 31 17 6 0 0 0 0 0 0 0 0 0 0 0 0 0 0